Location: ??
(35.4770°N, 139.4420°E)
Time: 16:27:05
(UTC+00:00)

Daily predictions for brighter satellites

Satellite Brightness Start Highest point End
(mag) Time Altitude Azimuth Time Altitude Azimuth Time Altitude Azimuth
Atlas Centaur 2 4.3 18:36:24 28° SSE 18:36:49 28° SSE 18:43:40 10° E
Cosmos 1844 Rocket 3.7 18:59:56 42° ESE 18:59:56 42° ESE 19:03:58 10° SE
SJ 16-02 3.5 19:04:42 24° ENE 19:04:42 24° ENE 19:07:47 10° ESE
Cosmos 44 4.4 19:10:18 45° SE 19:10:18 45° SE 19:14:02 10° SE
ATLAS 3B CENTAUR R/B 4.2 19:07:26 36° SSW 19:08:50 37° S 19:22:39 10° SE
ATLAS 2A CENTAUR R/B 4.1 19:10:17 29° SSE 19:10:17 29° SSE 19:17:33 10° ESE
Cosmos 2333 Rocket 3.1 19:12:37 41° NNE 19:12:37 41° NNE 19:16:15 10° NNE
Cosmos 2219 Rocket 2.6 19:19:09 55° NE 19:19:09 55° NE 19:23:32 10° NNE
Chandra Rocket (1) 3.8 19:21:55 28° SSE 19:21:55 28° SSE 19:24:05 10° ESE
OAO 2 Rocket 3.7 19:29:24 58° ESE 19:29:24 58° ESE 19:33:36 10° E
Meteor 2-5 Rocket 3.6 19:29:08 81° S 19:29:08 81° S 19:34:31 10° S
COSMOS 2428 2.7 19:29:17 65° S 19:30:10 82° ESE 19:35:53 10° NNE
Cosmos 1455 Rocket 4.0 19:37:11 10° SSE 19:41:22 46° E 19:45:33 10° NNE
CZ-2C R/B 3.1 19:41:30 23° SSE 19:42:03 24° SSE 19:45:19 10° E
SKYMED 2 4.4 19:39:43 10° SSE 19:43:53 49° ENE 19:46:28 22° N
CZ-3A R/B 4.4 19:39:50 29° WSW 19:45:05 40° SSW 19:52:59 10° SE
CZ-3 Stage 3 2.5 19:49:18 31° S 19:49:18 31° S 19:51:19 10° ESE
Cosmos 468 Rocket 3.8 19:46:11 10° SSW 19:51:23 85° WNW 19:56:41 10° NNE
NOSS 0 Rocket 4.2 19:49:43 10° S 19:55:51 67° ESE 20:01:59 10° NNE
Cosmos 1464 Rocket 4.0 19:52:24 10° S 19:58:30 78° E 20:04:39 10° N
H-2A R/B 3.3 19:58:24 10° NNE 20:02:03 55° E 20:05:42 10° S
Cosmos 1072 Rocket 4.4 19:56:28 10° S 20:02:38 88° W 20:08:54 10° N
CZ-4B R/B 2.4 20:00:21 10° S 20:02:31 37° S 20:02:31 37° S
deb Chang Zheng 4 3.3 20:00:06 10° N 20:04:21 75° WNW 20:08:33 10° SSW
IRIDIUM 104 4.2 20:00:29 10° SSW 20:05:36 61° W 20:10:47 10° N
Meteor 1-24 Rocket 3.8 20:04:31 35° NW 20:06:27 51° W 20:11:55 10° SSW
Envisat 3.9 20:03:45 10° NNE 20:08:41 49° E 20:13:35 10° S
USA 276 2.4 20:09:59 57° NNE 20:10:01 57° NE 20:13:06 10° ESE
ATLAS CENTAUR R/B 4.5 20:10:14 10° SE 20:12:14 14° ESE 20:14:12 10° ENE
IRIDIUM 114 4.5 20:09:45 10° SSW 20:14:46 48° W 20:19:49 10° N
Cosmos 1844 4.2 20:15:53 33° WNW 20:17:21 38° WSW 20:22:39 10° S
Meteor 2-10 4.3 20:15:17 10° SSW 20:20:48 52° W 20:26:14 10° N
Cosmos 1892 Rocket 3.5 20:18:56 14° NNW 20:22:33 63° W 20:26:53 10° S
ADEOS 4.4 20:18:29 10° N 20:22:21 28° WNW 20:22:21 28° WNW
Atlas Centaur 2 3.7 20:19:01 14° WSW 20:25:55 53° SSE 20:34:08 10° E
Cosmos 1953 2.2 20:22:21 10° S 20:26:21 86° W 20:30:20 10° N
PSLV R/B 3.9 20:23:33 10° SSE 20:27:36 85° E 20:31:45 10° NNW
Cosmos 1689 Rocket 2.1 20:25:19 10° SSE 20:28:13 73° ENE 20:30:31 15° N
Cosmos 1461 3.5 20:26:03 23° WSW 20:28:36 44° WNW 20:33:09 10° NNE
COSMO-SKYMED 1 2.9 20:27:52 10° S 20:31:58 42° W 20:35:07 16° NNW
GPS 2-04 Rocket1 3.0 20:31:40 29° W 20:33:36 59° SSW 20:37:42 10° ESE
Meteor 1-21 Rocket 4.5 20:28:43 10° N 20:34:27 75° E 20:40:15 10° SSE
Cosmos 2034 Rocket 4.0 20:28:33 10° S 20:34:55 77° W 20:41:18 10° N
Cosmos 921 Rocket 3.7 20:32:33 11° SW 20:36:04 30° WNW 20:39:50 10° N
Cosmos 540 Rocket 3.4 20:33:34 10° SSW 20:38:37 64° WNW 20:43:42 10° N
OAO 1 Rocket 4.5 20:36:10 19° WSW 20:39:58 82° S 20:45:18 10° E
YAOGAN 6 2.5 20:36:49 10° N 20:40:30 69° WNW 20:44:09 10° SSW
SL-16 R/B 3.8 20:35:54 10° S 20:41:03 38° ESE 20:46:14 10° NE
Cosmos 1844 Rocket 4.0 20:41:40 17° W 20:41:54 17° W 20:45:26 10° SW
Cosmos 990 Rocket 4.0 20:37:33 10° NNW 20:42:35 55° WSW 20:47:33 10° S
SJ 16-02 2.5 20:41:45 22° W 20:42:37 23° W 20:46:03 10° SSW
Cosmos 1908 3.0 20:40:33 10° S 20:44:20 80° W 20:48:09 10° N
Cosmos 2278 Rocket 2.3 20:43:00 10° NNW 20:48:43 80° ENE 20:54:22 10° SSE
CZ-4B R/B 4.3 20:43:17 10° NNE 20:48:46 49° E 20:54:08 10° S
ERS-2 2.9 20:45:56 10° SSW 20:49:10 30° W 20:51:50 14° NW
MOS 1 Rocket 3.7 20:44:15 10° S 20:49:12 46° W 20:53:55 10° NNW
USA 306 4.3 20:46:20 10° SSW 20:50:18 40° SE 20:54:18 10° ENE
Nadezhda 4 Rocket 3.9 20:45:26 10° N 20:51:32 74° W 20:57:36 10° S
Cosmos 1544 Rocket 4.0 20:48:03 10° SSW 20:52:04 38° W 20:56:06 10° N
Cosmos 1634 Rocket 4.5 20:46:32 10° S 20:52:35 65° E 20:58:41 10° NNE
Cosmos 2237 Rocket 2.3 20:49:08 10° SW 20:54:37 52° WNW 21:00:09 10° N
FALCON 9 DEB 4.0 20:52:51 18° W 20:54:46 31° NW 20:57:51 10° NNE
Cosmos 2333 Rocket 3.7 20:54:43 14° WNW 20:55:28 14° NW 20:58:28 10° NNW
Cosmos 858 Rocket 4.4 20:51:15 10° NNW 20:56:29 73° WSW 21:01:39 10° S
Cosmos 44 Rocket 3.8 20:53:41 10° NNW 20:58:54 67° ENE 21:04:03 10° SE
CZ-2C R/B 3.1 20:55:20 10° SSE 21:00:25 63° ENE 21:05:38 10° N
Okean 1-7 Rocket 4.2 20:56:34 10° NNW 21:00:43 36° W 21:04:49 10° SSW
CZ-4B R/B 4.2 21:00:19 10° NNW 21:02:25 15° WNW 21:04:32 10° WSW
Cosmos 2219 Rocket 3.7 21:00:58 13° WNW 21:02:30 14° NW 21:05:19 10° NNW
Cosmos 841 Rocket 4.0 21:01:54 10° SW 21:06:37 36° WNW 21:11:21 10° N
MOS 1-B 4.3 21:01:09 10° N 21:06:55 76° WNW 21:12:40 10° SSW
Lacrosse 4 Rocket 1.5 21:03:19 10° SSW 21:07:28 83° ESE 21:11:46 10° NNE
Cosmos 1898 Rocket 4.1 21:03:24 10° NW 21:08:07 36° W 21:12:48 10° SSW
FALCON 9 R/B 2.9 21:08:40 10° WSW 21:10:46 13° SW 21:12:09 10° S
Cosmos 1570 Rocket 4.4 21:08:04 10° SW 21:12:57 40° WNW 21:17:52 10° N
OAO 2 Rocket 3.3 21:08:31 10° W 21:13:26 86° S 21:18:24 10° E
COSMOS 2428 4.3 21:12:23 10° W 21:15:07 13° NW 21:17:52 10° NNW
Cosmos 2098 Rocket 4.4 21:09:49 10° N 21:15:54 58° E 21:20:43 10° SSE
Cosmos 1626 Rocket 3.8 21:11:50 10° NNW 21:16:08 48° W 21:20:25 10° SSW
NOAA 12 4.1 21:12:30 10° N 21:17:46 71° WNW 21:23:02 10° SSW
Cosmos 1703 3.5 21:15:21 10° NNW 21:19:07 49° W 21:22:52 10° SSW
BREEZE M DEB (TANK) 1.4 21:18:45 10° WNW 21:20:45 52° SW 21:23:24 10° SE
Cosmos 2228 3.3 21:16:43 10° S 21:20:57 73° E 21:25:11 10° N
CZ-2C R/B 1.5 21:17:26 10° WSW 21:21:27 64° SSE 21:25:11 10° E
Cosmos 1346 Rocket 3.8 21:18:25 10° N 21:22:18 51° E 21:26:10 10° SSE
Cosmos 1939 Rocket 3.3 21:20:23 10° NNE 21:24:17 66° E 21:28:07 10° S
Lacrosse 5 rocket 2.8 21:21:21 10° NNW 21:24:38 27° NE 21:27:48 10° ESE
SMAP 3.2 21:21:39 10° N 21:26:10 51° WNW 21:30:40 10° SSW
